Island Escape — C6SK4 — position and weather

sailwx.info

Track history (hours):
 
Tides and Currents Weather Stations Pressure Air Temp Water Temp Dewpoint Dewpoint Depression Visibility Wind Speed Wind Dir Waves Ship Positions

Island Escape

Operator: V Ships Leisure SAM

Last reported at 2014-Oct-21 22:25 UTC. Time now 2014-Oct-22 15:25 UTC.
Position N 39°31' E 002°18'.

Length 185 m; draft 7.3 m.

Type: Passenger vessel. MMSI: 311368000.

Date/timePositionNaut miles runAvg speedWind from/ knotsBaromVisibWave heightAir tempDewpointWater temp
2014-Oct-21 22:25N 39°31' E 002°18'9 0.4
2014-Oct-21 00:33N 39°40' E 002°15'2813.0
2014-Oct-20 22:25N 40°08' E 002°14'1112.8
2014-Oct-20 21:32N 40°19' E 002°13'2512.8
2014-Oct-20 19:34N 40°44' E 002°14'1512.9
2014-Oct-20 18:26N 40°58' E 002°15'1211.9
2014-Oct-20 17:26N 41°10' E 002°16'1210.6
2014-Oct-20 16:20N 41°21' E 002°11'1 0.1
2014-Oct-20 10:12N 41°22' E 002°11'101 8.5
2014-Oct-19 22:18N 42°06' E 004°13'1413.2
2014-Oct-19 21:14N 42°15' E 004°28'913.2
2014-Oct-19 20:31N 42°20' E 004°39'1313.1
2014-Oct-19 19:31N 42°28' E 004°53'1313.2
2014-Oct-19 18:33N 42°35' E 005°07'1313.5
2014-Oct-19 17:33N 42°43' E 005°22'1515.5
2014-Oct-19 16:33N 42°52' E 005°39'1717.2
2014-Oct-19 15:32N 43°02' E 005°59'5 5.6
2014-Oct-19 14:33N 43°07' E 005°56'0 0.0
2014-Oct-19 13:33N 43°07' E 005°56'0 0.0
2014-Oct-19 12:33N 43°07' E 005°56'0 0.0
2014-Oct-19 11:33N 43°07' E 005°56'0 0.0
2014-Oct-19 10:33N 43°07' E 005°56'0 0.0
2014-Oct-19 09:33N 43°07' E 005°56'0 0.0
2014-Oct-19 08:33N 43°07' E 005°56'0 0.0
2014-Oct-19 07:33N 43°07' E 005°56'0 0.3
2014-Oct-19 06:33N 43°07' E 005°56'4 3.5
2014-Oct-19 05:33N 43°05' E 005°59'1111.4
2014-Oct-19 04:34N 42°54' E 006°03'3511.3
2014-Oct-19 01:29N 42°58' E 006°50'6 6.0
2014-Oct-19 00:33N 43°03' E 006°53'1 0.8
2014-Oct-18 23:33N 43°03' E 006°54'1 0.8
2014-Oct-18 22:33N 43°03' E 006°55'1 0.6
2014-Oct-18 21:28N 43°03' E 006°56'1 0.6
2014-Oct-18 20:27N 43°02' E 006°56'1 1.3
2014-Oct-18 19:33N 43°03' E 006°58'1111.3
2014-Oct-18 18:33N 43°12' E 007°07'1312.2
2014-Oct-18 17:32N 43°23' E 007°15'1717.5
2014-Oct-18 16:33N 43°40' E 007°18'2 1.9
2014-Oct-18 15:29N 43°41' E 007°19'0 0.1
2014-Oct-18 14:29N 43°42' E 007°19'0 0.1
2014-Oct-18 13:17N 43°42' E 007°19'0 0.0
2014-Oct-18 12:23N 43°42' E 007°19'0 0.1
2014-Oct-18 11:29N 43°41' E 007°19'0 0.1
2014-Oct-18 10:28N 43°41' E 007°19'0 0.0
2014-Oct-18 09:28N 43°41' E 007°19'0 0.0
2014-Oct-18 08:28N 43°41' E 007°19'0 0.0
2014-Oct-18 07:28N 43°41' E 007°19'0 0.1
2014-Oct-18 06:28N 43°42' E 007°19'0 0.0
2014-Oct-18 05:22N 43°42' E 007°19'0 0.1
2014-Oct-18 04:32N 43°41' E 007°19'6 5.6
2014-Oct-18 03:32N 43°38' E 007°25'5212.7
2014-Oct-17 23:26N 43°35' E 008°37'1112.7
2014-Oct-17 22:33N 43°35' E 008°52'1313.3
2014-Oct-17 21:33N 43°35' E 009°10'1312.7
2014-Oct-17 20:33N 43°34' E 009°28'1312.7
2014-Oct-17 19:33N 43°33' E 009°45'1313.1
2014-Oct-17 18:33N 43°30' E 010°03'1110.6
2014-Oct-17 17:34N 43°32' E 010°17'0 0.5
2014-Oct-17 16:33N 43°33' E 010°18'0 0.0
2014-Oct-17 15:33N 43°33' E 010°18'0 0.0
2014-Oct-17 14:33N 43°33' E 010°18'0 0.0
2014-Oct-17 13:33N 43°33' E 010°18'0 0.0
2014-Oct-17 12:33N 43°33' E 010°18'0 0.0
2014-Oct-17 11:33N 43°33' E 010°18'0 0.0
2014-Oct-17 10:33N 43°33' E 010°18'0 0.0
2014-Oct-17 09:33N 43°33' E 010°18'0 0.0
2014-Oct-17 08:30N 43°33' E 010°18'0 0.0
2014-Oct-17 07:33N 43°33' E 010°18'0 0.0
2014-Oct-17 06:33N 43°33' E 010°18'0 0.0
2014-Oct-17 05:33N 43°33' E 010°18'0 0.0
2014-Oct-17 04:33N 43°33' E 010°18'7 7.1
2014-Oct-17 03:33N 43°30' E 010°09'1110.7
2014-Oct-17 02:34N 43°33' E 009°55'1212.0
2014-Oct-17 01:34N 43°31' E 009°39'1110.9
2014-Oct-17 00:33N 43°33' E 009°24'8 7.9
2014-Oct-16 23:33N 43°30' E 009°14'1111.0
2014-Oct-16 22:33N 43°21' E 009°21'1111.2
2014-Oct-16 21:33N 43°11' E 009°30'11 0.7
2014-Oct-16 04:33N 43°01' E 009°35'1110.8
2014-Oct-16 03:33N 43°06' E 009°22'33113.8
2014-Oct-15 03:32N 39°24' E 003°54'1414.7
2014-Oct-15 02:33N 39°17' E 003°38'1514.8
2014-Oct-15 01:33N 39°11' E 003°21'1514.6
2014-Oct-15 00:33N 39°04' E 003°04'1211.7
2014-Oct-14 23:33N 39°06' E 002°49'1414.4
2014-Oct-14 22:33N 39°20' E 002°43'1212.3
2014-Oct-14 21:33N 39°32' E 002°39'2 1.5
2014-Oct-14 20:31N 39°33' E 002°38'0 0.0
2014-Oct-14 19:31N 39°33' E 002°38'0 0.0
2014-Oct-14 18:31N 39°33' E 002°38'0 0.0
2014-Oct-14 17:31N 39°33' E 002°38'0 0.0
2014-Oct-14 16:31N 39°33' E 002°38'0 0.0
2014-Oct-14 15:31N 39°33' E 002°38'0 0.0
2014-Oct-14 14:31N 39°33' E 002°38'0 0.0
2014-Oct-14 13:31N 39°33' E 002°38'0 0.0
2014-Oct-14 12:32N 39°33' E 002°38'0 0.0
2014-Oct-14 11:31N 39°33' E 002°38'0 0.0
2014-Oct-14 10:31N 39°33' E 002°38'0 0.0
2014-Oct-14 09:31N 39°33' E 002°38'0 0.0
2014-Oct-14 08:31N 39°33' E 002°38'0 0.0
2014-Oct-14 07:31N 39°33' E 002°38'0 0.0
2014-Oct-14 06:31N 39°33' E 002°38'0 0.0
2014-Oct-14 05:31N 39°33' E 002°38'0 0.0
2014-Oct-14 04:31N 39°33' E 002°38'0 0.1
2014-Oct-14 03:33N 39°33' E 002°38'6 5.9
2014-Oct-14 02:33N 39°27' E 002°38'1211.5
2014-Oct-14 01:33N 39°22' E 002°25'1414.0
2014-Oct-14 00:33N 39°23' E 002°07'1514.6
2014-Oct-13 23:34N 39°23' E 001°48'1514.7
2014-Oct-13 22:33N 39°23' E 001°29'1514.1
2014-Oct-13 21:30N 39°24' E 001°10'5513.8
2014-Oct-13 17:28N 39°25' W 000°02'1212.9
2014-Oct-13 16:33N 39°25' W 000°17'2 2.4
2014-Oct-13 15:31N 39°27' W 000°19'0 0.0
2014-Oct-13 14:31N 39°27' W 000°19'0 0.0
2014-Oct-13 13:31N 39°27' W 000°19'0 0.0
2014-Oct-13 12:31N 39°27' W 000°19'0 0.0
2014-Oct-13 11:31N 39°27' W 000°19'0 0.0
2014-Oct-13 10:31N 39°27' W 000°19'0 0.0
2014-Oct-13 09:31N 39°27' W 000°19'0 0.0
2014-Oct-13 08:31N 39°27' W 000°19'0 0.0
2014-Oct-13 07:31N 39°27' W 000°19'0 0.0
2014-Oct-13 06:31N 39°27' W 000°19'0 0.1
2014-Oct-13 05:34N 39°27' W 000°19'9 8.5
2014-Oct-13 04:32N 39°22' W 000°11'8410.0
2014-Oct-12 20:12N 37°58' W 000°08'1313.1
2014-Oct-12 19:11N 37°47' W 000°16'913.3
2014-Oct-12 18:33N 37°40' W 000°23'1312.9
2014-Oct-12 17:33N 37°31' W 000°34'1212.1
2014-Oct-12 16:32N 37°29' W 000°49'9 0.8
2014-Oct-12 04:31N 37°29' W 001°01'1212.6
2014-Oct-12 03:32N 37°17' W 001°05'  
Track history (hours):
 
Tides and Currents Weather Stations Pressure Air Temp Water Temp Dewpoint Dewpoint Depression Visibility Wind Speed Wind Dir Waves Ship Positions

Island Escape

Operator: V Ships Leisure SAM

Last reported at 2014-Oct-21 22:25 UTC. Time now 2014-Oct-22 15:25 UTC.
Position N 39°31' E 002°18'.

Length 185 m; draft 7.3 m.

Type: Passenger vessel. MMSI: 311368000.

Date/timePositionNaut miles runAvg speedWind from/ knotsBaromVisibWave heightAir tempDewpointWater temp
2014-Oct-21 22:25N 39°31' E 002°18'9 0.4
2014-Oct-21 00:33N 39°40' E 002°15'2813.0
2014-Oct-20 22:25N 40°08' E 002°14'1112.8
2014-Oct-20 21:32N 40°19' E 002°13'2512.8
2014-Oct-20 19:34N 40°44' E 002°14'1512.9
2014-Oct-20 18:26N 40°58' E 002°15'1211.9
2014-Oct-20 17:26N 41°10' E 002°16'1210.6
2014-Oct-20 16:20N 41°21' E 002°11'1 0.1
2014-Oct-20 10:12N 41°22' E 002°11'101 8.5
2014-Oct-19 22:18N 42°06' E 004°13'1413.2
2014-Oct-19 21:14N 42°15' E 004°28'913.2
2014-Oct-19 20:31N 42°20' E 004°39'1313.1
2014-Oct-19 19:31N 42°28' E 004°53'1313.2
2014-Oct-19 18:33N 42°35' E 005°07'1313.5
2014-Oct-19 17:33N 42°43' E 005°22'1515.5
2014-Oct-19 16:33N 42°52' E 005°39'1717.2
2014-Oct-19 15:32N 43°02' E 005°59'5 5.6
2014-Oct-19 14:33N 43°07' E 005°56'0 0.0
2014-Oct-19 13:33N 43°07' E 005°56'0 0.0
2014-Oct-19 12:33N 43°07' E 005°56'0 0.0
2014-Oct-19 11:33N 43°07' E 005°56'0 0.0
2014-Oct-19 10:33N 43°07' E 005°56'0 0.0
2014-Oct-19 09:33N 43°07' E 005°56'0 0.0
2014-Oct-19 08:33N 43°07' E 005°56'0 0.0
2014-Oct-19 07:33N 43°07' E 005°56'0 0.3
2014-Oct-19 06:33N 43°07' E 005°56'4 3.5
2014-Oct-19 05:33N 43°05' E 005°59'1111.4
2014-Oct-19 04:34N 42°54' E 006°03'3511.3
2014-Oct-19 01:29N 42°58' E 006°50'6 6.0
2014-Oct-19 00:33N 43°03' E 006°53'1 0.8
2014-Oct-18 23:33N 43°03' E 006°54'1 0.8
2014-Oct-18 22:33N 43°03' E 006°55'1 0.6
2014-Oct-18 21:28N 43°03' E 006°56'1 0.6
2014-Oct-18 20:27N 43°02' E 006°56'1 1.3
2014-Oct-18 19:33N 43°03' E 006°58'1111.3
2014-Oct-18 18:33N 43°12' E 007°07'1312.2
2014-Oct-18 17:32N 43°23' E 007°15'1717.5
2014-Oct-18 16:33N 43°40' E 007°18'2 1.9
2014-Oct-18 15:29N 43°41' E 007°19'0 0.1
2014-Oct-18 14:29N 43°42' E 007°19'0 0.1
2014-Oct-18 13:17N 43°42' E 007°19'0 0.0
2014-Oct-18 12:23N 43°42' E 007°19'0 0.1
2014-Oct-18 11:29N 43°41' E 007°19'0 0.1
2014-Oct-18 10:28N 43°41' E 007°19'0 0.0
2014-Oct-18 09:28N 43°41' E 007°19'0 0.0
2014-Oct-18 08:28N 43°41' E 007°19'0 0.0
2014-Oct-18 07:28N 43°41' E 007°19'0 0.1
2014-Oct-18 06:28N 43°42' E 007°19'0 0.0
2014-Oct-18 05:22N 43°42' E 007°19'0 0.1
2014-Oct-18 04:32N 43°41' E 007°19'6 5.6
2014-Oct-18 03:32N 43°38' E 007°25'5212.7
2014-Oct-17 23:26N 43°35' E 008°37'1112.7
2014-Oct-17 22:33N 43°35' E 008°52'1313.3
2014-Oct-17 21:33N 43°35' E 009°10'1312.7
2014-Oct-17 20:33N 43°34' E 009°28'1312.7
2014-Oct-17 19:33N 43°33' E 009°45'1313.1
2014-Oct-17 18:33N 43°30' E 010°03'1110.6
2014-Oct-17 17:34N 43°32' E 010°17'0 0.5
2014-Oct-17 16:33N 43°33' E 010°18'0 0.0
2014-Oct-17 15:33N 43°33' E 010°18'0 0.0
2014-Oct-17 14:33N 43°33' E 010°18'0 0.0
2014-Oct-17 13:33N 43°33' E 010°18'0 0.0
2014-Oct-17 12:33N 43°33' E 010°18'0 0.0
2014-Oct-17 11:33N 43°33' E 010°18'0 0.0
2014-Oct-17 10:33N 43°33' E 010°18'0 0.0
2014-Oct-17 09:33N 43°33' E 010°18'0 0.0
2014-Oct-17 08:30N 43°33' E 010°18'0 0.0
2014-Oct-17 07:33N 43°33' E 010°18'0 0.0
2014-Oct-17 06:33N 43°33' E 010°18'0 0.0
2014-Oct-17 05:33N 43°33' E 010°18'0 0.0
2014-Oct-17 04:33N 43°33' E 010°18'7 7.1
2014-Oct-17 03:33N 43°30' E 010°09'1110.7
2014-Oct-17 02:34N 43°33' E 009°55'1212.0
2014-Oct-17 01:34N 43°31' E 009°39'1110.9
2014-Oct-17 00:33N 43°33' E 009°24'8 7.9
2014-Oct-16 23:33N 43°30' E 009°14'1111.0
2014-Oct-16 22:33N 43°21' E 009°21'1111.2
2014-Oct-16 21:33N 43°11' E 009°30'11 0.7
2014-Oct-16 04:33N 43°01' E 009°35'1110.8
2014-Oct-16 03:33N 43°06' E 009°22'33113.8
2014-Oct-15 03:32N 39°24' E 003°54'1414.7
2014-Oct-15 02:33N 39°17' E 003°38'1514.8
2014-Oct-15 01:33N 39°11' E 003°21'1514.6
2014-Oct-15 00:33N 39°04' E 003°04'1211.7
2014-Oct-14 23:33N 39°06' E 002°49'1414.4
2014-Oct-14 22:33N 39°20' E 002°43'1212.3
2014-Oct-14 21:33N 39°32' E 002°39'2 1.5
2014-Oct-14 20:31N 39°33' E 002°38'0 0.0
2014-Oct-14 19:31N 39°33' E 002°38'0 0.0
2014-Oct-14 18:31N 39°33' E 002°38'0 0.0
2014-Oct-14 17:31N 39°33' E 002°38'0 0.0
2014-Oct-14 16:31N 39°33' E 002°38'0 0.0
2014-Oct-14 15:31N 39°33' E 002°38'0 0.0
2014-Oct-14 14:31N 39°33' E 002°38'0 0.0
2014-Oct-14 13:31N 39°33' E 002°38'0 0.0
2014-Oct-14 12:32N 39°33' E 002°38'0 0.0
2014-Oct-14 11:31N 39°33' E 002°38'0 0.0
2014-Oct-14 10:31N 39°33' E 002°38'0 0.0
2014-Oct-14 09:31N 39°33' E 002°38'0 0.0
2014-Oct-14 08:31N 39°33' E 002°38'0 0.0
2014-Oct-14 07:31N 39°33' E 002°38'0 0.0
2014-Oct-14 06:31N 39°33' E 002°38'0 0.0
2014-Oct-14 05:31N 39°33' E 002°38'0 0.0
2014-Oct-14 04:31N 39°33' E 002°38'0 0.1
2014-Oct-14 03:33N 39°33' E 002°38'6 5.9
2014-Oct-14 02:33N 39°27' E 002°38'1211.5
2014-Oct-14 01:33N 39°22' E 002°25'1414.0
2014-Oct-14 00:33N 39°23' E 002°07'1514.6
2014-Oct-13 23:34N 39°23' E 001°48'1514.7
2014-Oct-13 22:33N 39°23' E 001°29'1514.1
2014-Oct-13 21:30N 39°24' E 001°10'5513.8
2014-Oct-13 17:28N 39°25' W 000°02'1212.9
2014-Oct-13 16:33N 39°25' W 000°17'2 2.4
2014-Oct-13 15:31N 39°27' W 000°19'0 0.0
2014-Oct-13 14:31N 39°27' W 000°19'0 0.0
2014-Oct-13 13:31N 39°27' W 000°19'0 0.0
2014-Oct-13 12:31N 39°27' W 000°19'0 0.0
2014-Oct-13 11:31N 39°27' W 000°19'0 0.0
2014-Oct-13 10:31N 39°27' W 000°19'0 0.0
2014-Oct-13 09:31N 39°27' W 000°19'0 0.0
2014-Oct-13 08:31N 39°27' W 000°19'0 0.0
2014-Oct-13 07:31N 39°27' W 000°19'0 0.0
2014-Oct-13 06:31N 39°27' W 000°19'0 0.1
2014-Oct-13 05:34N 39°27' W 000°19'9 8.5
2014-Oct-13 04:32N 39°22' W 000°11'8410.0
2014-Oct-12 20:12N 37°58' W 000°08'1313.1
2014-Oct-12 19:11N 37°47' W 000°16'913.3
2014-Oct-12 18:33N 37°40' W 000°23'1312.9
2014-Oct-12 17:33N 37°31' W 000°34'1212.1
2014-Oct-12 16:32N 37°29' W 000°49'9 0.8
2014-Oct-12 04:31N 37°29' W 001°01'1212.6
2014-Oct-12 03:32N 37°17' W 001°05'  

Dump ship's entire track history